Weather History for Newport, VT

Change the Weather History Date:

Wednesday, November 7, 2012

  Actual Average Record
Temperature  
Mean Temperature 27 °F -  
Max Temperature 35 °F 45 °F 70 °F (1938)
Min Temperature 19 °F 31 °F 16 °F (1987)
Degree Days  
Heating Degree Days 38    
Moisture  
Dew Point 18 °F    
Average Humidity 62    
Maximum Humidity 82    
Minimum Humidity 43    
Precipitation  
Precipitation 0.00 in - - ()
Sea Level Pressure  
Sea Level Pressure 30.11 in    
Wind  
Wind Speed 5 mph (North)    
Max Wind Speed 16 mph    
Max Gust Speed 21 mph    
Visibility 10 miles    
Events      
Averages and records for this station are not official NWS values.
T = Trace of Precipitation, MM = Missing Value Source: NWS Daily Summary

Daily Weather History Graph

Daily Weather History Graph

Search for Another Location

Airport:

Trip Planner

Search our weather history database for the weather conditions in past years. The results will help you decide how hot, cold, wet, or windy it might be!

Date:

Astronomy

Nov. 07, 2012 Rise Set
Actual Time 6:35 AM EST 4:28 PM EST
Civil Twilight 6:04 AM EST 4:59 PM EST
Nautical Twilight 5:29 AM EST 5:34 PM EST
Astronomical Twilight 4:55 AM EST 6:08 PM EST
Moon No Moon Rise 12:52 PM EST (11/7)
Length of Visible Light 10h 54m
Length of Day
9h 52m
Last Quarter, 43% of the Moon is Illuminated
Nov 7
Last Quarter
Nov 13
New
Nov 20
First Quarter
Nov 28
Full
Dec 6
Last Quarter

Hourly Weather History & Observations

Time (EST) Temp. Windchill Dew Point Humidity Pressure Visibility Wind Dir Wind Speed Gust Speed Precip Events Conditions
12:15 AM 21.9 °F - 17.1 °F 82% 30.19 in 10.0 mi Calm Calm - N/A   Clear
12:35 AM 22.5 °F - 17.2 °F 80% 30.18 in 10.0 mi Calm Calm - N/A   Clear
12:55 AM 22.6 °F - 17.4 °F 80% 30.19 in 10.0 mi Calm Calm - N/A   Clear
1:15 AM 20.7 °F - 15.3 °F 80% 30.19 in 10.0 mi Calm Calm - N/A   Clear
1:35 AM 21.7 °F 17.0 °F 16.5 °F 80% 30.19 in 10.0 mi West 3.5 mph - N/A   Clear
1:55 AM 21.2 °F - 16.2 °F 81% 30.19 in 10.0 mi Calm Calm - N/A   Clear
2:15 AM 20.3 °F 13.8 °F 15.1 °F 80% 30.21 in 10.0 mi SW 4.6 mph - N/A   Clear
2:35 AM 19.8 °F 13.2 °F 14.7 °F 81% 30.21 in 10.0 mi SW 4.6 mph - N/A   Clear
2:55 AM 20.1 °F 13.6 °F 15.1 °F 81% 30.23 in 10.0 mi SW 4.6 mph - N/A   Clear
3:15 AM 20.5 °F - 15.4 °F 81% 30.23 in 10.0 mi Calm Calm - N/A   Clear
3:55 AM 19.8 °F - 14.7 °F 81% 30.21 in 10.0 mi Calm Calm - N/A   Clear
4:15 AM 19.9 °F - 14.7 °F 80% 30.21 in 10.0 mi Calm Calm - N/A   Clear
4:35 AM 19.4 °F - 14.4 °F 81% 30.21 in 10.0 mi Calm Calm - N/A   Clear
8:15 AM 23.0 °F - 18.3 °F 82% 30.19 in 7.0 mi Calm Calm - N/A   Overcast
8:35 AM 23.9 °F - 19.0 °F 82% 30.19 in 7.0 mi Calm Calm - N/A   Mostly Cloudy
8:55 AM 24.4 °F 20.1 °F 19.8 °F 82% 30.18 in 7.0 mi NE 3.5 mph - N/A   Clear
9:15 AM 24.8 °F - 20.1 °F 82% 30.18 in 10.0 mi Calm Calm - N/A   Clear
9:35 AM 27.5 °F 23.6 °F 22.5 °F 81% 30.18 in 10.0 mi NNE 3.5 mph - N/A   Clear
9:55 AM 28.4 °F 23.3 °F 22.5 °F 78% 30.18 in 10.0 mi North 4.6 mph - N/A   Clear
10:15 AM 28.9 °F 25.2 °F 21.9 °F 75% 30.18 in 10.0 mi North 3.5 mph - N/A   Clear
10:35 AM 29.1 °F 24.1 °F 21.9 °F 74% 30.17 in 10.0 mi NW 4.6 mph - N/A   Clear
10:55 AM 30.0 °F 24.1 °F 22.6 °F 74% 30.15 in 10.0 mi NW 5.8 mph - N/A   Clear
11:15 AM 30.6 °F 24.7 °F 21.9 °F 70% 30.15 in 10.0 mi NNW 5.8 mph - N/A   Clear
11:35 AM 30.9 °F 26.2 °F 22.1 °F 70% 30.14 in 10.0 mi WNW 4.6 mph - N/A   Clear
11:55 AM 31.6 °F - 22.8 °F 70% 30.14 in 10.0 mi Calm Calm - N/A   Clear
12:15 PM 32.2 °F 28.9 °F 23.4 °F 70% 30.13 in 10.0 mi NNW 3.5 mph - N/A   Clear
12:35 PM 33.6 °F 26.8 °F 21.9 °F 62% 30.12 in 10.0 mi North 8.1 mph - N/A   Clear
12:55 PM 34.2 °F 27.5 °F 21.0 °F 59% 30.11 in 10.0 mi North 8.1 mph - N/A   Clear
1:15 PM 34.3 °F 27.0 °F 21.2 °F 59% 30.11 in 10.0 mi North 9.2 mph - N/A   Clear
1:35 PM 34.7 °F 26.4 °F 20.5 °F 56% 30.10 in 10.0 mi North 11.5 mph - N/A   Clear
1:55 PM 34.7 °F 26.9 °F 19.6 °F 54% 30.09 in 10.0 mi North 10.4 mph - N/A   Clear
2:15 PM 34.7 °F 25.9 °F 18.0 °F 51% 30.09 in 10.0 mi North 12.7 mph - N/A   Clear
2:35 PM 35.2 °F 28.1 °F 18.5 °F 51% 30.09 in 10.0 mi NNE 9.2 mph - N/A   Clear
2:55 PM 35.2 °F 28.8 °F 18.3 °F 50% 30.09 in 10.0 mi North 8.1 mph - N/A   Clear
3:15 PM 35.6 °F 28.0 °F 18.0 °F 49% 30.08 in 10.0 mi North 10.4 mph - N/A   Clear
3:35 PM 35.6 °F 28.6 °F 18.7 °F 50% 30.06 in 10.0 mi North 9.2 mph - N/A   Clear
3:55 PM 35.6 °F 29.2 °F 18.5 °F 50% 30.06 in 10.0 mi North 8.1 mph - N/A   Clear
4:15 PM 35.6 °F 28.0 °F 19.0 °F 51% 30.06 in 10.0 mi North 10.4 mph - N/A   Clear
4:35 PM 35.6 °F 28.0 °F 19.2 °F 51% 30.05 in 10.0 mi North 10.4 mph - N/A   Clear
4:55 PM 35.4 °F 28.4 °F 18.9 °F 51% 30.05 in 10.0 mi North 9.2 mph - N/A   Clear
5:15 PM 34.7 °F 27.5 °F 18.5 °F 52% 30.06 in 10.0 mi North 9.2 mph 16.1 mph N/A   Clear
5:35 PM 35.1 °F 27.4 °F 17.4 °F 49% 30.06 in 10.0 mi North 10.4 mph - N/A   Clear
5:55 PM 34.9 °F 26.2 °F 17.2 °F 49% 30.06 in 10.0 mi North 12.7 mph 19.6 mph N/A   Clear
6:15 PM 34.5 °F 25.7 °F 17.4 °F 50% 30.06 in 10.0 mi North 12.7 mph - N/A   Clear
6:35 PM 34.7 °F 25.1 °F 17.8 °F 50% 30.06 in 10.0 mi North 15.0 mph 20.7 mph N/A   Clear
6:55 PM 34.7 °F 25.5 °F 17.2 °F 49% 30.05 in 10.0 mi North 13.8 mph 20.7 mph N/A   Clear
7:15 PM 34.7 °F 25.1 °F 16.3 °F 47% 30.06 in 10.0 mi North 15.0 mph 18.4 mph N/A   Clear
7:35 PM 34.3 °F 24.6 °F 15.8 °F 47% 30.05 in 10.0 mi North 15.0 mph - N/A   Clear
7:55 PM 34.3 °F 25.0 °F 15.3 °F 46% 30.05 in 10.0 mi North 13.8 mph - N/A   Clear
8:15 PM 34.3 °F 25.0 °F 14.9 °F 45% 30.04 in 10.0 mi North 13.8 mph 20.7 mph N/A   Clear
8:35 PM 34.3 °F 25.0 °F 14.2 °F 44% 30.04 in 10.0 mi North 13.8 mph - N/A   Clear
8:55 PM 34.5 °F 25.7 °F 14.5 °F 44% 30.03 in 10.0 mi North 12.7 mph 18.4 mph N/A   Clear
9:15 PM 34.2 °F 25.2 °F 14.0 °F 44% 30.03 in 10.0 mi North 12.7 mph 18.4 mph N/A   Clear
9:35 PM 34.2 °F 24.4 °F 13.8 °F 43% 30.03 in 10.0 mi North 15.0 mph 20.7 mph N/A   Clear
9:55 PM 34.2 °F 24.4 °F 14.0 °F 44% 30.02 in 10.0 mi North 15.0 mph 20.7 mph N/A   Clear
10:15 PM 34.0 °F 23.8 °F 13.8 °F 44% 30.02 in 10.0 mi North 16.1 mph - N/A   Clear
10:35 PM 34.0 °F 24.6 °F 14.0 °F 44% 30.01 in 10.0 mi North 13.8 mph - N/A   Clear
10:55 PM 33.8 °F 25.8 °F 14.7 °F 46% 30.01 in 10.0 mi North 10.4 mph - N/A   Clear
11:15 PM 33.8 °F 24.3 °F 15.4 °F 47% 30.00 in 10.0 mi North 13.8 mph 18.4 mph N/A   Clear
11:35 PM 33.8 °F 24.8 °F 15.6 °F 47% 30.00 in 10.0 mi North 12.7 mph 18.4 mph N/A   Clear
11:55 PM 33.8 °F 24.3 °F 16.0 °F 48% 30.00 in 10.0 mi North 13.8 mph 20.7 mph N/A   Clear